Zurück zum Katalog

COSMOS 2251 DEB

AktivLEO
NORAD 37270·DEBRIS·🇷🇺 Russia

Gestartet Jun 16, 1993 von Plesetsk Cosmodrome

Loading…

Nächste Überflüge (nächste 24 Stunden)

TLE

AktuellSource: Space-Track

Epoche: Sep 14, 2026, 09:09 UTC

1 37270U 93036BHJ 26257.38150536  .00002040  00000-0  16006-2 0  9994
2 37270  73.9328 245.2680 0394675 206.8295 151.1919 13.61610536808191

Verfolge COSMOS 2251 DEB in Echtzeit mit AllMySat

Download on the App Store